Regional Weather Roundup
Issued by NWS

Home | Current Version | Previous Version | Graphics & Text | Print | Product List | Glossary On
Versions: 1 2 3 4 5 6 7 8 9 10 11 12 13 14 15 16 17 18 19 20 21 22 23 24 25 26 27 28 29 30 31 32 33 34 35 36 37 38 39 40 41 42 43 44 45 46 47 48 49 50
628
ASUS45 KBOI 051110
RWRID

IDAHO REGIONAL WEATHER ROUNDUP
NATIONAL WEATHER SERVICE BOISE ID
500 AM MDT THU MAY 05 2016

NOTE: "FAIR" INDICATES FEW OR NO CLOUDS BELOW 12000 FEET
WITH NO SIGNIFICANT WEATHER AND/OR OBSTRUCTIONS TO VISIBILITY

IDZ012-014-051200-
SOUTHWEST IDAHO


CITY           SKY/WX    TMP DP  RH WIND       PRES   REMARKS
BOISE          PTCLDY    61  42  49 W9        29.88R
CALDWELL       PTCLDY    56  44  64 W9        29.89R
MOUNTAIN HOME  MOCLDY    62  43  50 NW10      29.86S
$$

IDZ016-017-051200-
SOUTHCENTRAL IDAHO


CITY           SKY/WX    TMP DP  RH WIND       PRES   REMARKS
BURLEY         MOCLDY    52  43  71 SE3       29.90R
JEROME         CLOUDY    51  41  68 NE13      29.89R
TWIN FALLS     MOCLDY    57  35  43 S13       29.88R
$$

IDZ019>023-051200-
SOUTHEAST IDAHO


CITY           SKY/WX    TMP DP  RH WIND       PRES   REMARKS
IDAHO FALLS    CLOUDY    48  36  63 N5        29.98F
POCATELLO      CLOUDY    48  40  73 NW5       29.96R
REXBURG        CLOUDY    45  34  65 NE7       29.99F
$$

IDZ006-010-011-018-031-032-051200-
CENTRAL IDAHO MOUNTAINS


CITY           SKY/WX    TMP DP  RH WIND       PRES   REMARKS
MCCALL         LGT RAIN  50  42  74 N8        29.96F
HAILEY         PTCLDY    46  36  66 NW12      30.01S
STANLEY          N/A     35  29  78 CALM      30.04S
SALMON         CLOUDY    43  34  70 CALM      29.94R
CHALLIS        PTCLDY    46  31  55 S3        29.98S
$$

IDZ002-004-006-007-026-051200-
NORTHERN IDAHO


CITY           SKY/WX    TMP DP  RH WIND       PRES   REMARKS
LEWISTON       MOCLDY    57  50  77 W5        29.93R
LOWELL           N/A     54  50  86 CALM      29.92R
COEUR D`ALENE  MOCLDY    52  48  87 SW3       29.90R
MULLAN PASS    CLOUDY    47  40  76 SW5       30.01S
$$




USA.gov is the U.S. government's official web portal to all federal, state and local government web resources and services.